Regional Weather Roundup
Issued by NWS

Home | Current Version | Previous Version | Text Only | Print | Product List | Glossary On
Versions: 1 2 3 4 5 6 7 8 9 10 11 12 13 14 15 16 17 18 19 20 21 22 23 24 25 26 27 28 29 30 31 32 33 34 35 36 37 38 39 40 41 42 43 44 45 46 47 48 49 50
000
ASUS45 KREV 250410
RWRNV
NEVADA REGIONAL WEATHER ROUNDUP
NATIONAL WEATHER SERVICE RENO NV
900 PM PDT MON APR 24 2017

NOTE: "FAIR" INDICATES FEW OR NO CLOUDS BELOW 12,000 FEET WITH NO
SIGNIFICANT WEATHER AND/OR OBSTRUCTIONS TO VISIBILITY.

NVZ001-003-004-250500-
WESTERN NEVADA

CITY           SKY/WX    TMP DP  RH WIND       PRES   REMARKS
RENO           CLOUDY    48  34  58 NW16      29.91R
CARSON CITY    MOCLDY    46  32  57 SW20G33   29.92R
MINDEN         CLOUDY    46  28  49 SW10G17   29.93S
FALLON         CLOUDY    52  26  36 NW6       29.91R
LOVELOCK       CLOUDY    50  30  46 SW9       29.88R
HAWTHORNE      CLEAR     55  18  22 NW12G17   29.87R
$$

NVZ002-CAZ072-073-250500-
NORTHERN AND CENTRAL SIERRA

CITY           SKY/WX    TMP DP  RH WIND       PRES   REMARKS
S. LAKE TAHOE  LGT RAIN  36  33  89 S9        29.97F
TRUCKEE        CLOUDY    36  32  87 CALM      29.97R
SQUAW VLY 8000   N/A     30  30 100 SW15        N/A
SUSANVILLE     MOCLDY    43  37  81 NW9       29.91S
MAMMOTH LAKES  CLOUDY    46  15  29 W15G30    29.94S
$$

NVZ030-031-036-250500-
NORTHERN NEVADA

CITY           SKY/WX    TMP DP  RH WIND       PRES   REMARKS
ELKO           MOCLDY    40  34  79 SW10      29.82R
WINNEMUCCA     CLOUDY    47  31  53 W8        29.84R
WENDOVER       PTCLDY    49  31  49 W16       29.77R
$$

NVZ035-037-250500-
CENTRAL NEVADA

CITY           SKY/WX    TMP DP  RH WIND       PRES   REMARKS
ELY            MOCLDY    39  28  64 W10       29.83R
EUREKA           N/A     45  22  40 W9G24     29.84R
$$

NVZ013-014-250500-
SOUTH CENTRAL NEVADA

CITY           SKY/WX    TMP DP  RH WIND       PRES   REMARKS
TONOPAH        CLOUDY    51  18  27 N16G26    29.87R
$$

NVZ017-020-022-250500-
SOUTHERN NEVADA

CITY           SKY/WX    TMP DP  RH WIND       PRES   REMARKS
LAS VEGAS      MOCLDY    75  29  18 S9        29.59R
N. LAS VEGAS   MOCLDY    76  31  19 SW5       29.59R
NELLIS AFB     MOCLDY    76  35  22 S14       29.57R
HENDERSON      MOCLDY    70  33  25 SW21      29.65R
MERCURY        MOCLDY    68  29  23 W9        29.67R
$$



USA.gov is the U.S. government's official web portal to all federal, state and local government web resources and services.